Location: Bluff Heights
(33.7692°N, 118.1592°W)
Time: 10:43:00
(UTC+00:00)

Tiros 1 - Pass Details

Date: 25 July 2021
Orbit: 630 x 663 km, 48.4° (Epoch: 22 September)

Event Time Altitude Azimuth Distance (km) Brightness Sun altitude
Rises 05:30:35 0° 269° (W) 2,964 11.1 -26.0°
Reaches altitude 10° 05:33:21 10° 284° (WNW) 2,049 10.4 -26.3°
Maximum altitude 05:37:07 23° 337° (NNW) 1,368 9.5 -26.8°
Drops below altitude 10° 05:40:51 10° 30° (NNE) 2,035 9.9 -27.3°
Sets 05:43:36 0° 45° (NE) 2,939 10.6 -27.6°
